Regional Weather Roundup
Issued by NWS

Home | Current Version | Previous Version | Graphics & Text | Print | Product List | Glossary On
Versions: 1 2 3 4 5 6 7 8 9 10 11 12 13 14 15 16 17 18 19 20 21 22 23 24 25 26 27 28 29 30 31 32 33 34 35 36 37 38 39 40 41 42 43 44 45 46 47 48 49 50
254
ASUS43 KTOP 082059
RWRKS

WEATHER ROUNDUP FOR KANSAS
NATIONAL WEATHER SERVICE GOODLAND KS
300 PM CST MON FEB 08 2016

NOTE:  "FAIR" INDICATES FEW OR NO CLOUDS BELOW 12,000 FEET WITH NO
SIGNIFICANT WEATHER AND/OR OBSTRUCTIONS TO VISIBILITY.

KSZ001>006-013>018-027>032-041>047-082200-
NORTHWEST KANSAS

CITY           SKY/WX    TMP DP  RH WIND       PRES   REMARKS
GOODLAND       CLOUDY    38  19  46 N28G35    30.28F WCI  26
HAYS           MOSUNNY   37  14  38 NW23G33   30.28R WCI  26
HILL CITY      CLOUDY    38  18  44 NW17G29   30.28F WCI  28
RUSSELL        SUNNY     38  18  44 NW28G35   30.25S WCI  26
$$

KSZ061>065-074>080-084>089-082200-
SOUTHWEST KANSAS

CITY           SKY/WX    TMP DP  RH WIND       PRES   REMARKS
DODGE CITY     SUNNY     42   3  19 NW24G40   30.31F
ELKHART          N/A    N/A N/A N/A MISG        N/A
GARDEN CITY    SUNNY     44   2  17 N28       30.32F
GREAT BEND     SUNNY     39  12  33 NW25G32   30.27S WCI  28
LIBERAL        SUNNY     48  10  21 N22G31    30.35S
$$

KSZ066>073-081>083-090>101-082200-
SOUTHEAST KANSAS

CITY           SKY/WX    TMP DP  RH WIND       PRES   REMARKS
CHANUTE        PTSUNNY   41  15  35 NW31G38   30.11S
COFFEYVILLE    SUNNY     44  13  28 NW33G39   30.12F
HUTCHINSON     SUNNY     44  11  26 NW28G40   30.21F
MEDICINE LODGE   N/A     45  10  24 NW28G38   30.24F
NEWTON         SUNNY     41  12  30 NW33G48   30.18S
PARSONS        MOSUNNY   44  15  31 NW25G38   30.12F
WICHITA INTL   MOSUNNY   45  11  25 N36G47    30.19F
WICHITA JABRA  MOSUNNY   43  12  28 N31G45    30.18F
WINFIELD       SUNNY     45  11  25 NW36G45   30.19F
$$

KSZ007>012-019>026-033>040-048>060-102>105-082200-
NORTHEAST KANSAS

CITY           SKY/WX    TMP DP  RH WIND       PRES   REMARKS
CONCORDIA      SUNNY     39  17  41 NW33G46   30.17S WCI  27
EMPORIA        SUNNY     39  12  33 NW37G44   30.12S WCI  26
LAWRENCE       CLOUDY    37  17  44 NW30G39   30.09S WCI  24
MANHATTAN      MOSUNNY   39  14  36 N15G31    30.17S WCI  31
OLATHE IND     CLOUDY    34  16  47 NW33G40   30.06F WCI  20
OLATHE EXE     CLOUDY    32  17  54 NW21G32   30.05S WCI  20
SALINA         SUNNY     44  14  29 NW31G48   30.20S
TOPEKA BILLARD CLOUDY    37  15  40 NW28G36   30.12R WCI  25
TOPEKA FORBES  PTSUNNY   38  16  40 NW31G40   30.10S WCI  25
$$




USA.gov is the U.S. government's official web portal to all federal, state and local government web resources and services.